User: anonymous   Login
Location: Unspecified
(0.0000°N, 0.0000°E)
Time: 03:13:39
(UTC+00:00)
Language:

Cosmos 2346 - Orbit

View from above orbital plane
View from above orbital plane
View from above satellite
View from above satellite

Ground track
Ground track

The orbit data is extracted from the following two-line orbital elements,

1 24953U 97052A   18172.61673972 +.00000021 +00000-0 +62323-5 0  9990
2 24953 082.9220 011.7873 0038441 242.4760 175.0503 13.79592806044212
Epoch (UTC): 21 June 2018 14:48:06
Eccentricity: 0.0038441
inclination: 82.9220°
perigee height: 937 km
apogee height: 993 km
right ascension of ascending node: 11.7873°
argument of perigee: 242.4760°
revolutions per day: 13.79592806
mean anomaly at epoch: 175.0503°
orbit number at epoch: 4421

The dashed part of the orbit path shows where the satellite is in the earth's shadow,  

DLR